CW4549 Weather Reports


Display with metric or nautical units.
time (UTC)temp
F
wind
direction
speed
MPH
gust
MPH
rain 1hr
in
rain 24hr
in
rain mn
in
humidity
%
barometer
mb
20260509123018 56 0.0 3.0 0.00 0.14 0.14 100 1001.8
20260509121537 56 0.0 1.0 0.01 0.14 0.14 100 1002.1
20260509120017 56 0.0 2.0 0.01 0.14 0.14 100 1002.2
20260509114517 56 0.0 3.0 0.01 0.14 0.14 100 1002.1
20260509113037 55 0.0 2.0 0.01 0.14 0.14 100 1001.9
20260509111520 55 0.0 0.0 0.02 0.13 0.13 100 1001.9
20260509110017 55 0.0 0.0 0.04 0.13 0.13 100 1001.8
20260509104517 55 0.0 0.0 0.06 0.13 0.13 100 1001.6
20260509103017 55 0.0 1.0 0.06 0.13 0.13 100 1002.1
20260509101519 55 0.0 0.0 0.05 0.11 0.11 100 1002.2
20260509100017 55 0.0 0.0 0.03 0.09 0.09 100 1002.4
20260509094517 55 0.0 0.0 0.02 0.07 0.07 100 1002.4
20260509093039 55 0.0 0.0 0.03 0.07 0.07 100 1002.5
20260509091519 55 0.0 0.0 0.03 0.06 0.06 100 1002.2
20260509090017 56 0.0 0.0 0.04 0.06 0.06 100 1002.5
20260509084515 56 0.0 1.0 0.03 0.05 0.05 100 1002.6
20260509083035 56 0.0 0.0 0.03 0.04 0.04 99 1003.0
20260509081515 56 0.0 0.0 0.02 0.03 0.03 99 1003.0
20260509080037 56 0.0 0.0 0.01 0.02 0.02 99 1003.1
20260509074517 56 0.0 0.0 0.02 0.02 0.02 99 1002.9
20260509073017 56 0.0 0.0 0.01 0.01 0.01 98 1003.0
20260509071515 56 0.0 0.0 0.01 0.01 0.01 98 1003.1
20260509070037 56 0.0 0.0 0.01 0.01 0.01 97 1003.3
20260509064516 56 0.0 0.0 0.00 0.00 0.00 97 1003.6
20260509063015 56 0.0 0.0 0.00 0.00 0.00 96 1003.6
20260509061516 56 0.0 0.0 0.00 0.00 0.00 96 1003.8
20260509060017 56 0.0 0.0 0.00 0.00 0.00 95 1003.8
20260509054515 56 0.0 0.0 0.00 0.00 0.00 94 1003.6
20260509053015 56 0.0 0.0 0.00 0.00 0.00 94 1003.6
20260509051537 56 0.0 0.0 0.00 0.00 0.00 93 1003.6
20260509050018 56 0.0 0.0 0.00 0.00 0.00 93 1003.6
20260509044515 56 0.0 0.0 0.00 0.00 0.00 92 1003.7
20260509043016 56 0.0 0.0 0.00 0.00 0.00 91 1003.9
20260509041517 57 0.0 0.0 0.00 0.00 0.00 90 1003.9
20260509040017 57 0.0 0.0 0.00 0.00 0.00 89 1004.0
20260509034516 57 0.0 0.0 0.00 0.00 0.00 88 1004.0
20260509033016 57 0.0 0.0 0.00 0.00 0.00 87 1004.1
20260509031516 58 0.0 0.0 0.00 0.00 0.00 86 1004.2
20260509030016 58 0.0 2.0 0.00 0.00 0.00 85 1004.4
20260509024516 58 0.0 6.0 0.00 0.00 0.00 83 1004.4
20260509023016 59 45 1.0 8.0 0.00 0.00 0.00 80 1004.6
20260509021516 60 0.0 6.0 0.00 0.00 0.00 76 1004.4
20260509020016 62 0.0 0.0 0.00 0.00 0.00 71 1003.9
20260509014521 62 0.0 1.0 0.00 0.00 0.00 66 1003.5
20260509013017 63 0.0 1.0 0.00 0.00 0.00 63 1003.4
20260509011538 64 0.0 4.0 0.00 0.00 0.00 58 1003.5
20260509010016 64 0.0 3.0 0.00 0.00 0.00 57 1003.8
20260509004516 64 0.0 1.0 0.00 0.00 0.00 56 1003.4
20260509003016 64 0.0 1.0 0.00 0.00 0.00 53 1003.2
20260509001540 65 0.0 2.0 0.00 0.00 0.00 52 1003.2
20260509000018 66 0.0 0.0 0.00 0.00 0.00 50 1003.6
20260508234517 67 0.0 1.0 0.00 0.00 0.00 47 1003.3
20260508233016 67 0.0 5.0 0.00 0.00 0.00 44 1003.2
20260508231517 67 0.0 6.0 0.00 0.00 0.00 43 1003.3
20260508230017 68 0.0 3.0 0.00 0.00 0.00 43 1003.3
20260508224518 68 0.0 3.0 0.00 0.00 0.00 42 1003.1
20260508223016 68 0.0 3.0 0.00 0.00 0.00 41 1003.1
20260508221516 69 158 1.0 7.0 0.00 0.00 0.00 41 1003.1
20260508220018 69 248 1.0 6.0 0.00 0.00 0.00 39 1003.1
20260508214517 69 158 1.0 7.0 0.00 0.00 0.00 40 1002.9
20260508213038 69 158 1.0 6.0 0.00 0.00 0.00 39 1003.1
20260508211517 70 158 1.0 8.0 0.00 0.00 0.00 38 1003.1
20260508210017 70 158 2.0 12.0 0.00 0.00 0.00 37 1003.3
20260508204520 69 158 2.0 8.0 0.00 0.00 0.00 40 1003.7
20260508203017 69 180 2.0 11.0 0.00 0.00 0.00 40 1004.0
20260508201517 69 158 1.0 7.0 0.00 0.00 0.00 39 1004.2
20260508200037 69 180 1.0 7.0 0.00 0.00 0.00 39 1004.4
20260508194517 68 158 1.0 11.0 0.00 0.00 0.00 41 1004.6
20260508193017 69 180 1.0 11.0 0.00 0.00 0.00 39 1004.7
20260508191538 69 158 1.0 8.0 0.00 0.00 0.00 41 1004.8
20260508190018 70 158 2.0 11.0 0.00 0.00 0.00 40 1004.7
20260508184517 71 158 3.0 16.0 0.00 0.00 0.00 37 1005.1
20260508183017 69 158 2.0 11.0 0.00 0.00 0.00 43 1005.1
20260508181538 69 180 1.0 9.0 0.00 0.00 0.00 39 1005.8
20260508180037 69 158 2.0 12.0 0.00 0.00 0.00 38 1005.9
20260508174517 69 180 2.0 8.0 0.00 0.00 0.00 41 1006.1
20260508173018 69 158 1.0 8.0 0.00 0.00 0.00 41 1006.4
20260508171517 69 158 1.0 11.0 0.00 0.00 0.00 42 1006.7
20260508170017 68 180 2.0 12.0 0.00 0.00 0.00 44 1006.9
20260508164517 69 180 3.0 12.0 0.00 0.00 0.00 43 1007.2
20260508163017 69 158 2.0 12.0 0.00 0.00 0.00 44 1007.4
20260508161517 68 158 2.0 13.0 0.00 0.00 0.00 45 1007.6
20260508160038 67 180 3.0 13.0 0.00 0.00 0.00 47 1007.7
20260508154517 66 158 4.0 16.0 0.00 0.00 0.00 48 1007.9
20260508153017 66 158 3.0 11.0 0.00 0.00 0.00 46 1008.1
20260508151519 65 180 2.0 9.0 0.00 0.00 0.00 47 1008.3
20260508150017 64 158 2.0 13.0 0.00 0.00 0.00 49 1008.3
20260508144517 63 158 2.0 11.0 0.00 0.00 0.00 49 1008.5
20260508143017 62 225 2.0 11.0 0.00 0.00 0.00 51 1008.4
20260508141519 61 180 2.0 9.0 0.00 0.00 0.00 52 1008.6
20260508140019 59 158 2.0 11.0 0.00 0.00 0.00 53 1008.7
20260508134515 58 203 2.0 12.0 0.00 0.00 0.00 57 1008.8
20260508133017 57 180 3.0 11.0 0.00 0.00 0.00 55 1008.8
20260508131515 56 180 1.0 8.0 0.00 0.00 0.00 59 1008.9
20260508130017 54 180 2.0 9.0 0.00 0.00 0.00 59 1008.7
20260508124516 53 180 1.0 12.0 0.00 0.00 0.00 61 1008.7